User: anonymous   Login
Location: Unspecified
(0.0000°N, 0.0000°E)
Time: 13:53:06
(UTC+02:00)
Language:

CZ-2C R/B - Orbit

View from above orbital plane
View from above orbital plane
View from above satellite
View from above satellite

Ground track
Ground track

The orbit data is extracted from the following two-line orbital elements,

1 28480U 04046B   15117.42764269  .00000137  00000-0  67523-4 0  9999
2 28480 098.1319 254.9788 0142502 013.2147 052.5143 14.25490432542858
Epoch (UTC): 27 April 2015 10:15:48
Eccentricity: 0.0142502
inclination: 98.1319°
perigee height: 704 km
apogee height: 909 km
right ascension of ascending node: 254.9788°
argument of perigee: 13.2147°
revolutions per day: 14.25490432
mean anomaly at epoch: 52.5143°
orbit number at epoch: 54285

The dashed part of the orbit path shows where the satellite is in the earth's shadow,  

DLR